Flag for South Sudan

Past Weather in Malakal, South Sudan — Yesterday and Last 2 Weeks

Now
95 °F

Sunny.


Feels Like: 96 °F
Forecast: 89 / 72 °F
Wind: 10 mph from Southwest

Location: Khartoum Airport
Current Time: Sep 21, 2020 at 1:36:04 pm
Latest Report: Sep 21, 2020 at 1:00 pm
Visibility: 10 mi
Pressure29.86 "Hg
Humidity: 34%
Dew Point: 63 °F
Location of MalakalLocation

Past Weather in Malakal — Graph

°F

Malakal Temperature Yesterday

Maximum temperature yesterday: 97 °F (at 4:00 pm)
Minimum temperature yesterday: 79 °F (at 6:00 am)
Average temperature yesterday: 89 °F

High & Low Weather Summary for the Past Weeks

 TemperatureHumidityPressure
High106 °F (Sep 19, 4:00 pm)83% (Sep 12, 5:30 am)29.98 "Hg (Sep 12, 5:30 am)
Low72 °F (Sep 10, 7:00 am)17% (Sep 19, 4:00 pm)29.65 "Hg (Sep 19, 4:00 pm)
Average89 °F48%29.82 "Hg
* Reported Sep 6 12:00 pm — Sep 21 12:30 pm, Malakal. Weather by CustomWeather, © 2020

Note: Actual official high and low records may vary slightly from our data, if they occured in-between our weather recording intervals... More about our weather records

Malakal Weather History for the Previous 24 Hours

Scroll right to see more
 ConditionsComfort  
Time TempWeatherWind HumidityBarometerVisibility
12:30 pm
Mon, Sep 21
93 °FSunny.13 mph41%29.86 "Hg10 mi
12:00 pm91 °FSunny.10 mph41%29.89 "Hg10 mi
11:30 am90 °FSunny.14 mph49%29.89 "Hg10 mi
11:00 am90 °FSunny.13 mph49%29.89 "Hg10 mi
10:30 am86 °FSunny.12 mph59%29.89 "Hg10 mi
10:00 am86 °FSunny.12 mph59%29.89 "Hg10 mi
9:00 am82 °FSunny.8 mph66%29.86 "Hg10 mi
8:30 am82 °FSunny.8 mph70%29.86 "Hg10 mi
8:00 am82 °FSunny.5 mph66%29.86 "Hg10 mi
7:30 am81 °FSunny.6 mph70%29.86 "Hg10 mi
7:00 am81 °FSunny.3 mph70%29.83 "Hg10 mi
3:30 am86 °FClear.12 mph52%29.80 "Hg10 mi
3:00 am86 °FClear.10 mph52%29.80 "Hg10 mi
2:30 am86 °FClear.12 mph52%29.80 "Hg10 mi
2:00 am86 °FClear.12 mph52%29.80 "Hg10 mi
1:30 am86 °FClear.12 mph52%29.83 "Hg10 mi
1:00 am86 °FClear.8 mph52%29.83 "Hg10 mi
12:30 am88 °FClear.5 mph52%29.83 "Hg10 mi
12:00 am88 °FClear.5 mph49%29.83 "Hg10 mi
11:30 pm
Sun, Sep 20
88 °FClear.3 mph49%29.83 "Hg10 mi
11:00 pm88 °FClear.7 mph49%29.83 "Hg10 mi
10:30 pm88 °FClear.23 mph52%29.83 "Hg10 mi
9:30 pm90 °FClear.22 mph46%29.80 "Hg10 mi
9:00 pm90 °FClear.10 mph41%29.80 "Hg10 mi
8:30 pm91 °FClear.12 mph41%29.77 "Hg10 mi
8:00 pm91 °FClear.12 mph41%29.77 "Hg10 mi
7:30 pm93 °FClear.10 mph34%29.77 "Hg10 mi
7:00 pm93 °FClear.12 mph34%29.77 "Hg10 mi
6:30 pm95 °FSunny.12 mph30%29.74 "Hg10 mi
6:00 pm95 °FSunny.12 mph30%29.74 "Hg10 mi
5:30 pm95 °FSunny.12 mph30%29.74 "Hg10 mi
5:00 pm95 °FSunny.12 mph30%29.74 "Hg10 mi
4:30 pm97 °FSunny.9 mph30%29.74 "Hg10 mi
4:00 pm97 °FSunny.8 mph30%29.74 "Hg10 mi
3:30 pm95 °FSunny.12 mph30%29.77 "Hg10 mi
3:00 pm95 °FExtremely hot.14 mph30%29.77 "HgN/A
2:30 pm95 °FSunny.14 mph30%29.77 "Hg10 mi
2:00 pm95 °FSunny.12 mph30%29.77 "Hg10 mi
1:30 pm91 °FSunny.8 mph36%29.80 "Hg10 mi
1:00 pm91 °FSunny.7 mph36%29.80 "Hg10 mi
Weather by CustomWeather, © 2020

See weather overview